www.pogodaiklimat.ru

Погода и климат >> Архив погоды >> Корея >> Мунсан


ПОГОДА в Мунсане

  • Прогноз погоды в Мунсане
  • Монитор погоды в Мунсане

АРХИВ ПОГОДЫ в Мунсане

Время (UTC), дата Ветер
(напр.,м/с)
 
Видим.   Явления Облачность Т
(С)
Тd
(С)
f
(%)
Тe
(С)
Тes
(С)
Комфортность P
(гПа)
Po
(гПа)
Тmin
(С)
Tmax
(С)
R
(мм)
R24
(мм)
S
(см)
00 11.06 В 4 26 км 3/0
[]
+18.6 +12.3 67 +19 +25 1010.7 1007.1 +12.3 0.0
03 11.06 СЗ 1 14 км 3/0
[]
+22.3 +11.6 51 +25 +45 комфорт 1009.7 1006.2
06 11.06 В 1 23 км 1/1 1500 м
[]
+24.6 +12.2 46 +26 +42 жарко 1008.6 1005.1
09 11.06 СВ 1 19 км ясно +24.2 +11.1 44 +26 +29 жарко 1007.8 1004.3
12 11.06 С 1 35 км 1/0
[]
+19.0 +14.4 75 +21 +21 комфорт 1008.8 1005.3 +25.0
15 11.06 Ю 1 20 км 4/0
[]
+16.0 +14.5 91 +17 +17 1010.2 1006.6
18 11.06 ЮВ 1 21 км ясно +14.0 +13.6 97 +14 +14 1010.5 1006.9
21 11.06 штиль 0 9000 м ясно +13.5 +13.4 99 +13 +14 1011.0 1007.4
06 12.06 СЗ 3 19 км ясно +25.9 +14.6 50 +28 +41 жарко 1010.0 1006.5
09 12.06 СЗ 2 18 км ясно +23.6 +14.5 57 +26 +29 жарко 1009.5 1006.0
12 12.06 штиль 0 65 км 5/0
[]
+18.8 +14.2 75 +20 +20 1010.7 1007.1 +26.5
15 12.06 штиль 0 60 км 3/0
[]
+15.8 +14.3 91 +16 +16 1011.4 1007.8
18 12.06 штиль 0 65 км ясно +14.6 +13.9 96 +14 +14 1011.3 1007.7
21 12.06 штиль 0 60 км ясно +14.1 +13.9 99 +14 +14 1011.3 1007.7
00 13.06 Ю 1 23 км 4/0
[]
+21.1 +15.4 70 +24 +34 комфорт 1011.8 1008.3 +13.6
03 13.06 СЗ 1 19 км 3/1
[]
+25.7 +17.6 61 +30 +49 душно 1011.0 1007.5
06 13.06 С 3 19 км ясно +26.3 +14.4 48 +29 +41 жарко 1009.1 1005.6
09 13.06 С 6 25 км 6/0
[]
+25.8 +13.9 48 +28 +29 жарко 1008.4 1004.9
12 13.06 65 км 8/0
[]
+19.7 +15.9 79 1009.4 1005.9 +27.2
15 13.06 штиль 0 60 км 9/0
[]
+17.2 +15.7 91 +17 +17 1009.2 1005.6
18 13.06 штиль 0 65 км ?/? +16.2 +15.5 96 +16 +16 1007.8 1004.2
21 13.06 штиль 0 14 км 10/4
[]
+16.2 +15.7 97 +16 +16 1007.9 1004.3
00 14.06 штиль 0 23 км ?/? +19.2 +16.9 87 +21 +24 комфорт 1007.7 1004.2 +15.8
03 14.06 С 1 23 км 8/3 1500 м
[]
+24.4 +13.5 51 +27 +37 жарко 1006.9 1003.4
06 14.06 С 2 45 км 6/0
[]
+26.8 +13.8 45 +29 +40 жарко 1004.5 1001.1
09 14.06 16 км н/о +24.6 +15.2 56 +28 +28 душно 1003.4 999.9
12 14.06 штиль 0 28 км 6/0
[]
+19.3 +16.8 85 +21 +21 комфорт 1004.2 1000.7
15 14.06 В 1 30 км 4/0
[]
+17.1 +16.6 97 +18 +18 1003.9 1000.3
18 14.06 В 1 19 км 6/3 1000 м
[]
+16.4 +15.7 96 +17 +17 1002.6 999.0
21 14.06 СВ 1 20 км 3/0
[]
+15.5 +15.1 97 +16 +16 1002.4 998.8
00 15.06 С 1 30 км 1/1 600 м
[]
+21.1 +16.4 75 +25 +35 комфорт 1002.4 998.9
03 15.06 19 км н/о +24.3 +16.7 63 +28 +35 душно 1000.3 996.9
06 15.06 С 3 11 км 1/1 1500 м
[]
+26.9 +14.6 47 +29 +41 жарко 997.8 994.4
09 15.06 В 5 5000 м 9/8 1500 м
[]
+21.4 +12.2 56 +24 +24 комфорт 998.5 995.0
12 15.06 В 2 16 км 6/0
[]
+17.2 +13.9 81 +18 +18 1000.9 997.3 +27.6 0.0
15 15.06 В 1 30 км 3/1 2000 м
[]
+16.9 +13.9 82 +18 +18 1003.2 999.6
18 15.06 В 1 18 км ясно +14.1 +13.6 97 +14 +14 1003.8 1000.2
21 15.06 СВ 1 25 км ясно +15.0 +13.8 93 +15 +16 1005.6 1002.0
00 16.06 В 5 23 км ясно +21.2 +14.5 66 +24 +29 комфорт 1007.0 1003.5 +13.5 0.0
03 16.06 СЗ 2 24 км 5/0
[]
+24.7 +13.5 50 +27 +42 жарко 1007.1 1003.6
06 16.06 СЗ 2 13 км 6/1 2000 м
[]
+26.0 +13.1 45 +28 +38 жарко 1006.9 1003.4
09 16.06 8000 м н/о +23.7 +14.6 57 +26 +27 жарко 1007.6 1004.1
12 16.06 ЮЗ 1 18 км 8/0
[]
+19.2 +16.0 82 +22 +22 комфорт 1009.0 1005.5
15 16.06 10 км н/о +18.1 +15.7 86 +19 +19 1010.1 1006.5
18 16.06 З 1 15 км 10//
[]
+18.2 +16.3 89 +20 +20 1011.2 1007.6
21 16.06 24 км н/о +17.7 +16.0 90 +19 +19 1012.0 1008.4
00 17.06 ЮЗ 2 35 км ясно +21.7 +15.2 67 +25 +35 комфорт 1012.7 1009.2
03 17.06 З 3 24 км 4/0
[]
+24.2 +15.9 60 +27 +41 жарко 1012.7 1009.2
06 17.06 З 3 16 км 4/0
[]
+24.8 +15.9 58 +28 +38 жарко 1011.8 1008.3
09 17.06 З 2 12 км 8/0
[]
+22.3 +15.3 65 +26 +28 жарко 1011.2 1007.7
12 17.06 СЗ 1 17 км 6/0
[]
+19.2 +15.4 79 +22 +22 комфорт 1012.1 1008.5 +25.6
15 17.06 З 1 17 км 6/3
[]
+16.7 +15.2 91 +18 +18 1012.6 1009.0
18 17.06 штиль 0 50 км 9/9 1500 м
[]
+17.2 +16.0 93 +17 +17 1012.0 1008.4
21 17.06 20 км н/о +17.7 +15.6 88 +18 +18 1012.0 1008.4

 

Местоположение метеостанции Мунсан (Корея): широта 37.88 долгота 126.76 высота над уровнем моря 31 м.

В архиве по умолчанию представлена погода в Мунсане за последнюю неделю. Архивные данные за месяц целиком и за предыдущие месяцы, начиная с января 2011 года, Вы можете получить, выбрав интересующий диапазон дат из раскрывающегося списка и нажав кнопку "Ввод!".


*Определитесь, кто Вы:
робот инопланетянин человек

Внимание! Время в таблицах - всемирное. Для получения местного времени необходимо прибавить поправку, которая равна 9 ч.

Смотрите также архив погоды в соседних городах и на ближайших метеорологических станциях:

Погода в Кэсоне (КНДР) (20 км)
Погода в Тондучхоне (Корея) (26 км)
Погода в Сеуле (Корея) (39 км)
Погода в Инчхоне (Корея) (47 км)
Погода в Чхорвоне (Корея) (56 км)
Погода в Букчунчеоне (Корея) (61 км)
Погода в Сувоне (Корея) (71 км)
Погода в Сингяе (КНДР) (72 км)
Погода в Пхенганге (КНДР) (75 км)
Погода в Чунчоне (Корея) (83 км)

Пояснения к столбцам:

Ветер - указаны скорость ветра в м/с - средняя за 10 мин, порывы в срок и между сроками (в фигурных скобках) и направление, откуда дует ветер: С - северный, СВ - северо-восточный, В - восточный, ЮВ - юго-восточный, Ю - южный, ЮЗ - юго-западный, З - западный, СЗ - северо-западный.
Видимость - горизонтальная дальность видимости в метрах или километрах. При видимости от 1 до 10 км при отсутствии осадков обычно наблюдается дымка, при ухудшении видимости до 1 км и менее - туман. В сухую погоду видимость может ухудшаться дымом, пылью или мглою.
Явления - указаны атмосферные явления, наблюдавшиеся в срок или в последний час перед сроком; фигурными скобками обозначены явления, наблюдавшиеся между сроками (за 1-3 часа до срока); квадратными скобками обозначены град или гололедные отложения с указанием их диаметра в мм.
Облачность - указаны через наклонную черту общая и нижняя облачность в баллах и высота нижней границы облаков в метрах; квадратными скобками обозначены формы облаков: Ci - перистые, Cs - перисто-слоистые, Cc - перисто-кучевые, Ac - высококучевые, As - высокослоистые, Sc - слоисто-кучевые, Ns - слоисто-дождевые, Cu - кучевые, Cb - кучево-дождевые. Подробнее классификацию облаков см. в Атласе облаков (PDF).
T - Температура воздуха - температура, измеренная на высоте 2 м над землей.
Td - Температура точки росы - температура, при понижении до которой содержащийся в воздухе водяной пар достигнет насыщения.
f - Относительная влажность воздуха - влажноcть воздуха, измеренная на высоте 2 м над землей.
Te - Эффективная температура - температура, которую ощущает одетый по сезону человек в тени. Характеристика душности погоды. При расчете учитывается влияние влажности воздуха и скорости ветра на теплоощущения человека.
Tes - Эффективная температура на солнце - температура, которую ощущает человек, с поправкой на солнечный нагрев. Характеристика знойности погоды. Зависит от высоты солнца над горизонтом, облачности и скорости ветра. Ночью, в пасмурную погоду, а также при ветре 12 м/с и более поправка равна нулю.
P - Атмосферное давление - приведенное к уровню моря атмосферное давление.
Po - Атмосферное давление - измеренное на уровне метеостанции атмосферное давление.
Tmin - Минимальная температура - минимум температуры воздуха на высоте 2 м над землей.
Tmax - Максимальная температура - максимум температуры воздуха на высоте 2 м над землей.
R - Количество осадков - Количество выпавших осадков за период времени, мм. При наведении курсора мыши на число - период времени, за который выпало указанное количество осадков.
R24 - Количество осадков - Количество выпавших осадков за 24 часа, мм.
S - Снежный покров - Высота снежного покрова, см. При наведении курсора мыши на число - состояние снежного покрова и степень покрытия местности в баллах.